XML Sitemap

This is a XML Sitemap which is supposed to be processed by search engines which follow the XML Sitemap standard like Ask.com, Bing, Google and Yahoo.
It was generated using the WordPress content management system and the Google Sitemap Generator Plugin by Arne Brachhold.
You can find more information about XML sitemaps on sitemaps.org and Google's list of sitemap programs.

URLPriorityChange frequencyLast modified (GMT)
https://100frames.com/34-university-of-iowa-calendar/50%Daily2019-03-07 14:11
https://100frames.com/30-advent-calendar-ornaments-printable/50%Daily2019-03-07 14:10
https://100frames.com/33-2019-2020-monthly-planner/50%Daily2019-03-07 14:08
https://100frames.com/31-us-telugu-calendar-2019/50%Daily2019-03-07 14:08
https://100frames.com/32-printable-calendar-2019-free-by-the-weekly/50%Daily2019-03-07 14:05
https://100frames.com/32-calendar-printable-template-2019/50%Daily2019-03-07 14:02
https://100frames.com/33-interactive-online-printable-calendar/50%Daily2019-03-07 14:01
https://100frames.com/15-2019-calendar-hong-kong-2019-calendar-template/50%Daily2019-03-07 13:59
https://100frames.com/31-august-2107-printable-calendar/50%Daily2019-03-07 13:56
https://100frames.com/31-calendar-of-2019-november/50%Daily2019-03-07 13:55
https://100frames.com/35-printable-calendar-weekly-2019/50%Daily2019-03-07 13:54
https://100frames.com/32-18-july-2019-holiday/50%Daily2019-03-07 13:52
https://100frames.com/35-printable-august-2019-calendar-free-nature/50%Daily2019-03-07 13:50
https://100frames.com/35-october-printable-calendar-2019-tumblr/50%Daily2019-03-07 13:49
https://100frames.com/31-printable-custom-workout-calendar/50%Daily2019-03-07 13:47
https://100frames.com/30-accurate-chinese-gender-calendar/50%Daily2019-03-07 13:45
https://100frames.com/35-september-calendar-2019-printable-with-us-holidays/50%Daily2019-03-07 13:45
https://100frames.com/23-monthly-calendar-2019-december/50%Daily2019-03-07 13:44
https://100frames.com/34-legalshield-calendar-ga/50%Daily2019-03-07 13:42
https://100frames.com/26-february-month-calendar-2019/50%Daily2019-03-07 13:40
https://100frames.com/35-design-where-to-find-a-free-printable-2019-november-calendar/50%Daily2019-03-07 13:40
https://100frames.com/35-printable-spain-calendar-2019/50%Daily2019-03-07 13:37
https://100frames.com/32-printable-calendar-november-2019-half-sheet/50%Daily2019-03-07 13:35
https://100frames.com/34-editable-weekly-calendar/50%Daily2019-03-07 13:35
https://100frames.com/31-free-printable-calendar-march-april/50%Daily2019-03-07 13:32
https://100frames.com/30-blank-calendar-february-2019/50%Daily2019-03-07 13:30
https://100frames.com/31-calendar-february-2019-usa/50%Daily2019-03-07 13:30
https://100frames.com/30-golden-state-warriors-calendar/50%Daily2019-03-07 13:28
https://100frames.com/30-printable-advent-calendar-jesus/50%Daily2019-03-07 13:26
https://100frames.com/32-free-printable-pocket-calendar-2019-2020/50%Daily2019-03-07 13:26
https://100frames.com/15-printable-running-calendar/50%Daily2019-03-07 13:24
https://100frames.com/33-september-2019-calendar-nz-printable/50%Daily2019-03-07 13:23
https://100frames.com/31-printable-two-month-calendars/50%Daily2019-03-07 13:20
https://100frames.com/30-sanrio-printable-calendar-2019/50%Daily2019-03-07 13:19
https://100frames.com/32-calendar-printable-2019-17/50%Daily2019-03-07 13:17
https://100frames.com/30-month-free-printable-calendar/50%Daily2019-03-07 13:15
https://100frames.com/32-win-calendar-template/50%Daily2019-03-07 13:14
https://100frames.com/33-printable-2019-calendar-free/50%Daily2019-03-07 13:12
https://100frames.com/23-6-week-calendar-printable-free/50%Daily2019-03-07 13:10
https://100frames.com/32-2019-20-calendar/50%Daily2019-03-07 13:10
https://100frames.com/33-free-printable-multiple-year-calendar/50%Daily2019-03-07 13:07
https://100frames.com/30-free-printable-classroom-calendar-sets/50%Daily2019-03-07 13:05
https://100frames.com/31-office-calendar-printable/50%Daily2019-03-07 13:05
https://100frames.com/32-print-calendar-2019/50%Daily2019-03-07 13:03
https://100frames.com/32-austin-isd-calendar-2019-2020/50%Daily2019-03-07 13:00
https://100frames.com/30-free-printable-christmas-advent-calendar-numbers/50%Daily2019-03-07 13:00
https://100frames.com/22-daily-desk-calendar-2019/50%Daily2019-03-07 12:58
https://100frames.com/30-september-2019-calendar-printable-starting-monday/50%Daily2019-03-07 12:57
https://100frames.com/34-this-week-calendar/50%Daily2019-03-07 12:56
https://100frames.com/30-telugu-calendar-2019-chicago/50%Daily2019-03-07 12:55
https://100frames.com/34-printable-calendar-with-large-blocks/50%Daily2019-03-07 12:51
https://100frames.com/30-large-printable-yearly-calendar/50%Daily2019-03-07 12:50
https://100frames.com/31-calendar-monthly-planner-2019/50%Daily2019-03-07 12:48
https://100frames.com/31-blank-two-month-calendar-printable/50%Daily2019-03-07 12:46
https://100frames.com/31-2019-calendar-year-view-printable/50%Daily2019-03-07 12:46
https://100frames.com/31-january-2019-printable-calendar-vertical/50%Daily2019-03-07 12:44
https://100frames.com/35-printable-modern-black-and-white-advent-calendar-boxes/50%Daily2019-03-07 12:42
https://100frames.com/31-printable-calendar-appointment-times/50%Daily2019-03-07 12:40
https://100frames.com/15-uf-academic-calendar-2019-20/50%Daily2019-03-07 12:40
https://100frames.com/24-cute-happyeasterfrom-com/50%Daily2019-03-07 12:36
https://100frames.com/34-family-planner-calendar-printable/50%Daily2019-03-07 12:35
https://100frames.com/34-printable-blank-calendar-for-may-2019/50%Daily2019-03-07 12:35
https://100frames.com/32-printable-2-week-calendar-template/50%Daily2019-03-07 12:32
https://100frames.com/35-blank-printable-mayan-calendar/50%Daily2019-03-07 12:30
https://100frames.com/30-blank-september-2019-calendar-september-2019-free-printable-blank-calendar-collection/50%Daily2019-03-07 12:30
https://100frames.com/30-free-meal-calendar-printable/50%Daily2019-03-07 12:28
https://100frames.com/24-july-calendar-canada-printable/50%Daily2019-03-07 12:25
https://100frames.com/32-february-blank-calendar-2019/50%Daily2019-03-07 12:26
https://100frames.com/34-printable-calendar-june-to-july-2019/50%Daily2019-03-07 12:25
https://100frames.com/35-league-schedule-maker-excel/50%Daily2019-03-07 12:23
https://100frames.com/32-free-printable-calendars-2019-november/50%Daily2019-03-07 12:21
https://100frames.com/31-4th-quarter-calendar-2019-printable/50%Daily2019-03-07 12:21
https://100frames.com/31-2019-calendar-pages-to-print/50%Daily2019-03-07 12:20
https://100frames.com/31-create-printable-workout-calendar/50%Daily2019-03-07 12:17
https://100frames.com/31-pretty-calendar-template/50%Daily2019-03-07 12:15
https://100frames.com/21-december-calendar-2019-pdf/50%Daily2019-03-07 12:15
https://100frames.com/34-giant-calendar-2019-large-desk-calendar-2019-calendar-printable-calendar/50%Daily2019-03-07 12:13
https://100frames.com/31-january-to-march-2019-calendar/50%Daily2019-03-07 12:11
https://100frames.com/24-printable-calendar-june-august-2019/50%Daily2019-03-07 12:10
https://100frames.com/23-printable-july-2019-calendar-word-document/50%Daily2019-03-07 12:10
https://100frames.com/34-2019-printable-year-calendar-template/50%Daily2019-03-07 12:08
https://100frames.com/30-birthday-reminder-calendar-free-printable/50%Daily2019-03-07 12:05
https://100frames.com/25-printable-calendar-may-july-2019/50%Daily2019-03-07 12:05
https://100frames.com/34-free-printable-editable-time-schedule-calendar/50%Daily2019-03-07 12:03
https://100frames.com/34-free-printable-december-2019-calendar/50%Daily2019-03-07 12:01
https://100frames.com/33-time-date-calendar/50%Daily2019-03-07 12:00
https://100frames.com/33-november-calendar-2019-nz-printable/50%Daily2019-03-07 11:59
https://100frames.com/30-may-2008-calendar-printable/50%Daily2019-03-07 11:56
https://100frames.com/31-free-printable-2019-calendar-with-holidays-uk/50%Daily2019-03-07 11:56
https://100frames.com/33-calendar-for-the-month-of-september-2019/50%Daily2019-03-07 11:54
https://100frames.com/32-godiva-chocolate-advent-calendar/50%Daily2019-03-07 11:52
https://100frames.com/29-disney-vacation-countdown-calendar-printable/50%Daily2019-03-07 11:50
https://100frames.com/35-online-calendar-printing/50%Daily2019-03-07 11:50
https://100frames.com/24-free-printable-calendar-without-dates/50%Daily2019-03-07 11:47
https://100frames.com/31-wellness-calendar-2019/50%Daily2019-03-07 11:46
https://100frames.com/34-2019-december-christmas-calendar/50%Daily2019-03-07 11:46
https://100frames.com/31-2019-printables-calendar/50%Daily2019-03-07 11:44
https://100frames.com/35-free-calendars-printable/50%Daily2019-03-07 11:41
https://100frames.com/32-february-2019-calendar-template/50%Daily2019-03-07 11:40
https://100frames.com/32-large-print-printable-calendar-december-2019/50%Daily2019-03-07 11:38
https://100frames.com/34-free-cute-printable-meal-calendar/50%Daily2019-03-07 11:36
https://100frames.com/32-blank-calendar-template-november-2019/50%Daily2019-03-07 11:35
https://100frames.com/35-free-printable-online-calendar-maker/50%Daily2019-03-07 11:34
https://100frames.com/24-november-2019-calendar-printable-kids/50%Daily2019-03-07 11:31
https://100frames.com/35-max-30-calendar/50%Daily2019-03-07 11:31
https://100frames.com/32-minnie-mouse-printable-calendar/50%Daily2019-03-07 11:29
https://100frames.com/35-free-printable-2019-attendance-calendar-template/50%Daily2019-03-07 11:27
https://100frames.com/32-calendar-2019-printable-by-month-free/50%Daily2019-03-07 11:25
https://100frames.com/25-july-2019-calendar-printable-with-notes/50%Daily2019-03-07 11:24
https://100frames.com/35-5-day-week-calendar-printable-free/50%Daily2019-03-07 11:22
https://100frames.com/25-july-calendar-printable-word/50%Daily2019-03-07 11:20
https://100frames.com/35-free-printable-customizable-calendar-templates/50%Daily2019-03-07 11:20
https://100frames.com/33-printable-monthly-calendar-for-kids/50%Daily2019-03-07 11:18
https://100frames.com/32-weekly-calendar-pdf/50%Daily2019-03-07 11:16
https://100frames.com/34-calendar-2019-to-2019-printable/50%Daily2019-03-07 11:16
https://100frames.com/31-blank-march-calendar/50%Daily2019-03-07 11:14
https://100frames.com/34-advent-calendar-2019-for-kids/50%Daily2019-03-07 11:11
https://100frames.com/31-september-2019-printable-calendar-landscape/50%Daily2019-03-07 11:10
https://100frames.com/35-free-printable-childrens-calendar-2019/50%Daily2019-03-07 11:08
https://100frames.com/34-war-dragons-calendar/50%Daily2019-03-07 11:06
https://100frames.com/33-monthly-calendar-february-2019/50%Daily2019-03-07 11:05
https://100frames.com/32-free-printable-monthly-calendar-with-us-holidays/50%Daily2019-03-07 11:03
https://100frames.com/30-triple-rock-calendar/50%Daily2019-03-07 11:01
https://100frames.com/33-printable-february-2019-calendar-page/50%Daily2019-03-07 11:00
https://100frames.com/33-blank-calendars-printable-2019/50%Daily2019-03-07 10:58
https://100frames.com/30-printable-calendar-february-march-april-2019/50%Daily2019-03-07 10:56
https://100frames.com/32-calendar-task-manager/50%Daily2019-03-07 10:55
https://100frames.com/32-monthly-calendar-sept-2019/50%Daily2019-03-07 10:54
https://100frames.com/32-weekly-work-calendar-printable/50%Daily2019-03-07 10:52
https://100frames.com/31-create-printable-countdown-calendar/50%Daily2019-03-07 10:50
https://100frames.com/32-one-year-calendar-2019-printable/50%Daily2019-03-07 10:50
https://100frames.com/31-april-2019-calendar-printable-cute/50%Daily2019-03-07 10:47
https://100frames.com/35-printable-calendar-2019-january-to-december/50%Daily2019-03-07 10:45
https://100frames.com/35-2019-calendar-weeks-printable/50%Daily2019-03-07 10:44
https://100frames.com/33-printable-red-wings-calendar/50%Daily2019-03-07 10:41
https://100frames.com/35-printable-paper-calendar/50%Daily2019-03-07 10:40
https://100frames.com/34-2019-calendar-of-december/50%Daily2019-03-07 10:39
https://100frames.com/32-printable-calendar-feb-2019/50%Daily2019-03-07 10:37
https://100frames.com/32-printable-portrait-orientation-calendar-pages-2019-2020/50%Daily2019-03-07 10:35
https://100frames.com/24-printable-calendar-feb-march-2019/50%Daily2019-03-07 10:35
https://100frames.com/33-november-2019-holidays/50%Daily2019-03-07 10:33
https://100frames.com/31-printable-free-calendars-online/50%Daily2019-03-07 10:31
https://100frames.com/35-nfl-weekly-schedule-2019/50%Daily2019-03-07 10:30
https://100frames.com/30-how-to-create-calendar-in-word/50%Daily2019-03-07 10:28
https://100frames.com/35-free-printable-daily-calendar-with-notes/50%Daily2019-03-07 10:27
https://100frames.com/34-calendar-2019-of-july/50%Daily2019-03-07 10:25
https://100frames.com/34-printable-calendar-refills-for-planners/50%Daily2019-03-07 10:25
https://100frames.com/32-small-cute-printable-2019-calendar/50%Daily2019-03-07 10:23
https://100frames.com/30-free-printable-yearly-calendars-pdf/50%Daily2019-03-07 10:20
https://100frames.com/32-may-2019-printable-calendar-uk/50%Daily2019-03-07 10:20
https://100frames.com/30-free-printable-october-calendar-numbers/50%Daily2019-03-07 10:17
https://100frames.com/35-dd-faerun-calendar-printable-pdf/50%Daily2019-03-07 10:16
https://100frames.com/35-printable-2019-calendar-wincalendar/50%Daily2019-03-07 10:14
https://100frames.com/34-free-printable-editable-calendar-july-2019/50%Daily2019-03-07 10:13
https://100frames.com/34-24-november-2019-holiday/50%Daily2019-03-07 10:11
https://100frames.com/26-month-of-july-printable-calendar-2019/50%Daily2019-03-07 10:10